FENGYUN 1C DEB

Satellite information

Favourite Embed

Satellite Type and Status

DEBRISIN ORBIT

Key statistics

Satellite FENGYUN 1C DEB at a glance.

Uptime

9556

Days in orbit

Revolutions

≈ 14.2

Per day

Orbit

SSO

Sun Synchronous Orbit

Inclination

99.1

Latest

Satellite identification and parameters

Extended collection of information and parameters for FENGYUN 1C DEB.

Object identification

Identified? True

Debris? True

Object name: FENGYUN 1C DEB

International designator: 1999-025BQ

Object number (NORAD): 29774

Object ID (CCSDS): 29774

Country: PEOPLES REPUBLIC OF CHINA (PRC)

Current information (Y/N): Y

RCS size: SMALL

Orbital parameters

Period: 101.226 minutes

Inclination: 99.0578 deg

SMA: 7194.852 km

Apoapsis: 852.489 km

Periapsis: 780.945 km

RAAN: 124.6583 deg

Eccentricy: 0.0049719

Argument of periapsis: 215.049 deg

Mean anomaly: 213.9147 deg

Mean motion: 14.22557988 rev/day

Mean motion (dot): 0.00000181 rev/day2

B* drag term: 0.00010073 1/REarth

Two-line elements (TLE)

Creation date: July 7, 2025, 10:36 p.m.

Reference frame: TEME

Reference center: EARTH

Epoch: July 7, 2025, 8:07 p.m. UTC

TLE line 0: 0 FENGYUN 1C DEB

TLE line 1: 1 29774U 99025BQ 25188.83842750 .00000181 00000-0 10073-3 0 9999

TLE line 2: 2 29774 99.0578 124.6583 0049719 215.0490 213.9147 14.22557988958346

Live tracking on map

Real-time ground track for satellite FENGYUN 1C DEB.

In-orbit conjunctions

A list of the most updated potential collisions computed for object FENGYUN 1C DEB.

Target Orbit TCA Probability of collision Miss distance Type
CZ-4 DEB SSO 2024-08-06 16:05:53 0.000158262 106.0 (m) DEBRIS

Associated space launch

Chinese polar orbiting meteorological satellite

FENGYUN 1C DEB was lifted into orbit during the mission ‘Long March 4B | Feng Yun 1C’, on board a Long March 4B space rocket.

The launch took place on May 10, 1999, 1:33 a.m. from Launch Complex 7.

For more information about the launch, click the button.

Launch to space Long March 4B | Feng Yun 1C
Long March 4B | Feng Yun 1C

Agency: N/A

Status: Launch Successful

Launch date: May 10, 1999, 1:33 a.m. UTC

Rocket: Long March 4B

Launch pad: Launch Complex 7

Location: Taiyuan Satellite Launch Center, People's Republic of China

...

Latest news about this satellite

There are no fresh news available about this satellite. Check back as we update our databases every day.


Newsletter sign-up

Weekly statistics, charts and insights to help you stay on top of the space industry.